Location: Bodest
(46.3000°N, 22.5667°E)
Time: 23:37:46
(UTC+00:00)

H-2A R/B - Pass Details

Date: 16 October 2021
Orbit: 577 x 653 km, 98.5° (Epoch: 05 December)

Event Time Altitude Azimuth Distance (km) Brightness Sun altitude
Rises 16:37:02 0° 26° (NNE) 2,804 5.1 -10.4°
Reaches altitude 10° 16:39:32 10° 41° (NE) 1,901 4.2 -10.8°
Maximum altitude 16:42:51 23° 95° (E) 1,247 3.0 -11.4°
Drops below altitude 10° 16:46:10 10° 149° (SSE) 1,903 4.3 -11.9°
Sets 16:48:41 0° 164° (SSE) 2,808 5.3 -12.4°
